FW6974 Weather Reports


Display with metric or nautical units.
time (UTC)temp
F
wind
direction
speed
MPH
gust
MPH
rain 1hr
in
rain 24hr
in
rain mn
in
humidity
%
barometer
mb
20260507114543 42 208 2.0 3.0 0.00 0.00 0.00 99 1016.4
20260507114040 41 271 2.0 4.0 0.00 0.00 0.00 99 1016.2
20260507113537 40 293 0.0 3.0 0.00 0.00 0.00 99 1016.5
20260507113035 40 257 2.0 2.0 0.00 0.00 0.00 99 1016.3
20260507112532 40 302 1.0 4.0 0.00 0.00 0.00 99 1016.5
20260507112029 39 258 0.0 2.0 0.00 0.00 0.00 99 1016.1
20260507111526 39 289 1.0 2.0 0.00 0.00 0.00 99 1016.2
20260507111022 39 310 0.0 3.0 0.00 0.00 0.00 99 1016.0
20260507110519 39 306 2.0 2.0 0.00 0.00 0.00 99 1015.9
20260507110016 39 304 2.0 2.0 0.00 0.00 0.00 99 1016.0
20260507105513 39 300 1.0 2.0 0.00 0.00 0.00 99 1016.0
20260507105009 39 317 1.0 2.0 0.00 0.00 0.00 99 1015.7
20260507104506 39 316 2.0 2.0 0.00 0.00 0.00 99 1015.7
20260507104002 39 295 2.0 3.0 0.00 0.00 0.00 99 1015.9
20260507103458 39 295 2.0 3.0 0.00 0.00 0.00 99 1015.9
20260507102955 39 290 2.0 2.0 0.00 0.00 0.00 99 1015.8
20260507102452 39 292 2.0 2.0 0.00 0.00 0.00 99 1015.9
20260507101948 39 292 0.0 3.0 0.00 0.00 0.00 99 1015.8
20260507101443 39 302 2.0 2.0 0.00 0.00 0.00 99 1015.6
20260507100940 39 297 0.0 2.0 0.00 0.00 0.00 99 1015.7
20260507100437 39 327 1.0 2.0 0.00 0.00 0.00 99 1015.9
20260507095935 39 309 2.0 2.0 0.00 0.00 0.00 99 1015.8
20260507095433 39 281 1.0 2.0 0.00 0.00 0.00 99 1015.7
20260507094930 39 295 2.0 2.0 0.00 0.00 0.00 99 1015.8
20260507094426 39 310 1.0 2.0 0.00 0.00 0.00 99 1015.6
20260507093923 39 275 1.0 2.0 0.00 0.00 0.00 99 1015.6
20260507093421 39 276 0.0 2.0 0.00 0.00 0.00 99 1015.7
20260507092919 39 301 2.0 3.0 0.00 0.00 0.00 99 1015.7
20260507092415 39 292 0.0 2.0 0.00 0.00 0.00 99 1015.5
20260507091912 39 328 1.0 2.0 0.00 0.00 0.00 99 1015.7
20260507091408 39 254 0.0 2.0 0.00 0.00 0.00 99 1015.6
20260507090904 39 281 2.0 3.0 0.00 0.00 0.00 99 1015.5
20260507090400 39 253 2.0 2.0 0.00 0.00 0.00 99 1015.5
20260507085857 39 308 2.0 3.0 0.00 0.00 0.00 99 1015.5
20260507085354 39 298 1.0 2.0 0.00 0.00 0.00 99 1015.5
20260507084851 39 299 2.0 2.0 0.00 0.00 0.00 99 1015.6
20260507084348 39 289 2.0 2.0 0.00 0.00 0.00 99 1015.3
20260507083845 39 275 0.0 3.0 0.00 0.00 0.00 99 1015.3
20260507083341 39 283 2.0 2.0 0.00 0.00 0.00 99 1015.2
20260507082838 39 299 2.0 2.0 0.00 0.00 0.00 99 1015.3
20260507082333 39 339 1.0 2.0 0.00 0.00 0.00 99 1015.3
20260507081831 39 287 0.0 3.0 0.00 0.00 0.00 99 1015.3
20260507081326 39 275 1.0 2.0 0.00 0.00 0.00 99 1015.3
20260507080823 39 277 0.0 3.0 0.00 0.00 0.00 99 1015.3
20260507080320 39 278 2.0 2.0 0.00 0.00 0.00 99 1015.4
20260507075815 39 272 2.0 2.0 0.00 0.00 0.00 99 1015.3
20260507075311 39 277 0.0 2.0 0.00 0.00 0.00 99 1015.3
20260507074808 39 281 1.0 2.0 0.00 0.00 0.00 99 1015.1
20260507074306 39 291 0.0 2.0 0.00 0.00 0.00 99 1015.0
20260507073803 40 280 2.0 3.0 0.00 0.00 0.00 99 1015.3
20260507073259 40 265 1.0 2.0 0.00 0.00 0.00 99 1015.2
20260507072757 40 255 2.0 2.0 0.00 0.00 0.00 99 1015.3
20260507072254 40 285 0.0 2.0 0.00 0.00 0.00 99 1015.3
20260507071751 40 272 1.0 2.0 0.00 0.00 0.00 99 1015.2
20260507071247 40 278 2.0 3.0 0.00 0.00 0.00 99 1015.2
20260507070745 41 283 2.0 2.0 0.00 0.00 0.00 99 1015.3
20260507070242 40 267 2.0 2.0 0.00 0.00 0.00 99 1015.1
20260507065738 40 297 1.0 3.0 0.00 0.00 0.00 99 1015.2
20260507065235 40 258 2.0 2.0 0.00 0.00 0.00 99 1015.2
20260507064732 41 275 2.0 2.0 0.00 0.00 0.00 99 1015.1
20260507064231 41 294 0.0 2.0 0.00 0.00 0.00 99 1015.4
20260507063728 41 290 2.0 2.0 0.00 0.00 0.00 99 1015.3
20260507063225 41 269 0.0 3.0 0.00 0.00 0.00 99 1015.4
20260507062722 41 282 1.0 3.0 0.00 0.00 0.00 99 1015.3
20260507062219 41 300 1.0 3.0 0.00 0.00 0.00 99 1015.4
20260507061717 41 289 2.0 3.0 0.00 0.00 0.00 99 1015.4
20260507061215 41 276 1.0 3.0 0.00 0.00 0.00 99 1015.4
20260507060713 41 287 2.0 3.0 0.00 0.00 0.00 99 1015.1
20260507060208 41 277 0.0 2.0 0.00 0.00 0.00 99 1015.4
20260507055705 41 292 2.0 2.0 0.00 0.00 0.00 99 1015.3
20260507055200 41 265 1.0 2.0 0.00 0.00 0.00 98 1015.3
20260507054657 41 312 2.0 2.0 0.00 0.00 0.00 98 1015.4
20260507054154 41 285 2.0 3.0 0.00 0.00 0.00 98 1015.2
20260507053652 42 262 1.0 3.0 0.00 0.00 0.00 98 1015.4
20260507053149 41 292 2.0 3.0 0.00 0.00 0.00 98 1015.6
20260507052648 42 278 2.0 3.0 0.00 0.00 0.00 98 1015.2
20260507052143 41 281 1.0 2.0 0.00 0.00 0.00 98 1015.5
20260507051641 41 253 0.0 3.0 0.00 0.00 0.00 98 1015.5
20260507051138 42 251 2.0 2.0 0.00 0.00 0.00 98 1015.2
20260507050635 42 257 1.0 3.0 0.00 0.00 0.00 98 1015.5
20260507050131 42 308 0.0 3.0 0.00 0.00 0.00 98 1015.4
20260507045629 42 291 1.0 3.0 0.00 0.00 0.00 98 1015.5
20260507045125 42 315 0.0 2.0 0.00 0.00 0.00 98 1015.5
20260507044622 42 275 2.0 3.0 0.00 0.00 0.00 97 1015.6
20260507044119 42 254 2.0 3.0 0.00 0.00 0.00 97 1015.5
20260507043615 42 260 2.0 2.0 0.00 0.00 0.00 97 1015.7
20260507043112 43 271 0.0 3.0 0.00 0.00 0.00 97 1015.7
20260507042608 43 294 1.0 3.0 0.00 0.00 0.00 97 1015.8
20260507042103 43 283 2.0 3.0 0.00 0.00 0.00 97 1015.6
20260507041600 43 279 1.0 3.0 0.00 0.00 0.00 97 1015.8
20260507041057 44 288 1.0 3.0 0.00 0.00 0.00 97 1015.7
20260507040554 44 294 1.0 3.0 0.00 0.00 0.00 97 1015.7
20260507040050 44 317 2.0 2.0 0.00 0.00 0.00 96 1015.7
20260507035546 44 285 1.0 2.0 0.00 0.00 0.00 96 1015.5
20260507035043 43 287 1.0 3.0 0.00 0.00 0.00 95 1015.3
20260507034539 43 276 1.0 2.0 0.00 0.00 0.00 95 1015.5
20260507034038 43 295 2.0 2.0 0.00 0.00 0.00 94 1015.5
20260507033535 43 269 1.0 2.0 0.00 0.00 0.00 94 1015.5
20260507033032 44 264 0.0 2.0 0.00 0.00 0.00 94 1015.4
20260507032529 44 269 1.0 2.0 0.00 0.00 0.00 94 1015.6
20260507032026 44 294 0.0 2.0 0.00 0.00 0.00 94 1015.7
20260507031521 44 291 2.0 2.0 0.00 0.00 0.00 93 1015.6
20260507031019 44 275 0.0 3.0 0.00 0.00 0.00 93 1015.7
20260507030516 44 276 1.0 2.0 0.00 0.00 0.00 92 1015.5
20260507030014 45 328 2.0 2.0 0.00 0.00 0.00 92 1015.5
20260507025510 45 288 2.0 2.0 0.00 0.00 0.00 91 1015.3
20260507025008 45 316 1.0 2.0 0.00 0.00 0.00 91 1015.5
20260507024506 46 241 0.0 2.0 0.00 0.00 0.00 91 1015.7
20260507024001 46 262 2.0 2.0 0.00 0.00 0.00 90 1015.4
20260507023458 46 257 1.0 2.0 0.00 0.00 0.00 89 1015.4
20260507022955 46 265 2.0 2.0 0.00 0.00 0.00 89 1015.4
20260507022452 46 276 0.0 2.0 0.00 0.00 0.00 89 1015.3
20260507021948 47 292 0.0 2.0 0.00 0.00 0.00 88 1015.2
20260507021443 47 269 1.0 2.0 0.00 0.00 0.00 88 1015.4
20260507020941 48 269 1.0 2.0 0.00 0.00 0.00 87 1015.2
20260507020438 48 264 2.0 2.0 0.00 0.00 0.00 86 1015.3
20260507015934 48 269 0.0 2.0 0.00 0.00 0.00 85 1015.6
20260507015433 49 259 1.0 2.0 0.00 0.00 0.00 85 1015.2
20260507014930 49 272 1.0 2.0 0.00 0.00 0.00 84 1015.3
20260507014426 49 275 2.0 3.0 0.00 0.00 0.00 84 1015.1
20260507013922 50 280 1.0 2.0 0.00 0.00 0.00 84 1015.1
20260507013419 50 242 0.0 2.0 0.00 0.00 0.00 82 1015.2
20260507012917 50 260 1.0 2.0 0.00 0.00 0.00 81 1015.1
20260507012413 50 246 0.0 2.0 0.00 0.00 0.00 81 1015.0
20260507011905 51 266 0.0 2.0 0.00 0.00 0.00 80 1014.8
20260507011402 51 252 1.0 2.0 0.00 0.00 0.00 78 1014.8
20260507010901 51 281 0.0 1.0 0.00 0.00 0.00 75 1014.8
20260507010356 51 239 1.0 2.0 0.00 0.00 0.00 76 1014.5
20260507005854 52 236 1.0 2.0 0.00 0.00 0.00 76 1014.4
20260507005351 52 291 2.0 2.0 0.00 0.00 0.00 74 1014.8
20260507004847 53 268 0.0 1.0 0.00 0.00 0.00 74 1014.5
20260507004345 53 295 0.0 2.0 0.00 0.00 0.00 70 1014.7
20260507003842 53 267 0.0 2.0 0.00 0.00 0.00 73 1014.7
20260507003337 54 309 0.0 2.0 0.00 0.00 0.00 73 1014.7
20260507002832 54 289 1.0 2.0 0.00 0.00 0.00 74 1014.4
20260507002328 55 201 2.0 2.0 0.00 0.00 0.00 65 1014.5
20260507001826 55 213 1.0 5.0 0.00 0.00 0.00 65 1014.2
20260507001323 56 327 2.0 3.0 0.00 0.00 0.00 69 1014.5
20260507000819 56 289 1.0 2.0 0.00 0.00 0.00 70 1014.5
20260507000315 56 219 2.0 3.0 0.00 0.00 0.00 72 1014.2
20260506235812 56 299 2.0 3.0 0.00 0.00 0.00 67 1014.2
20260506235308 57 281 0.0 2.0 0.00 0.00 0.00 61 1014.2
20260506234804 57 271 1.0 3.0 0.00 0.00 0.00 62 1014.2
20260506234302 57 219 2.0 3.0 0.00 0.00 0.00 63 1014.0
20260506233800 57 243 2.0 3.0 0.00 0.00 0.00 59 1014.0
20260506233256 57 238 2.0 3.0 0.00 0.00 0.00 63 1013.9
20260506232753 57 232 3.0 4.0 0.00 0.00 0.00 57 1013.7
20260506232247 58 88 2.0 3.0 0.00 0.00 0.00 58 1014.0
20260506231745 57 143 1.0 5.0 0.00 0.00 0.00 57 1013.6
20260506231243 58 217 3.0 4.0 0.00 0.00 0.00 57 1013.7
20260506230739 58 332 2.0 4.0 0.00 0.00 0.00 57 1013.3
20260506230237 58 150 5.0 5.0 0.00 0.00 0.00 55 1013.3
20260506225733 58 290 2.0 3.0 0.00 0.00 0.00 60 1013.5
20260506225230 58 227 2.0 4.0 0.00 0.00 0.00 57 1013.6
20260506224726 58 306 1.0 4.0 0.00 0.00 0.00 57 1013.6
20260506224224 58 133 3.0 6.0 0.00 0.00 0.00 53 1013.6
20260506223720 58 291 2.0 4.0 0.00 0.00 0.00 57 1013.5
20260506223216 58 204 2.0 5.0 0.00 0.00 0.00 60 1013.6
20260506222713 58 191 4.0 8.0 0.00 0.00 0.00 54 1013.7
20260506222208 58 209 4.0 6.0 0.00 0.00 0.00 53 1013.8
20260506221707 59 170 4.0 5.0 0.00 0.00 0.00 56 1013.8
20260506221204 59 186 2.0 6.0 0.00 0.00 0.00 56 1013.7
20260506220701 59 254 0.0 4.0 0.00 0.00 0.00 59 1013.8
20260506220156 59 265 0.0 3.0 0.00 0.00 0.00 59 1014.1
20260506215653 59 231 2.0 6.0 0.00 0.00 0.00 53 1013.9
20260506215148 59 185 2.0 5.0 0.00 0.00 0.00 56 1014.0
20260506214645 60 240 2.0 5.0 0.00 0.00 0.00 53 1014.0
20260506214143 60 123 2.0 4.0 0.00 0.00 0.00 55 1014.0
20260506213641 60 252 1.0 4.0 0.00 0.00 0.00 57 1013.8
20260506213138 59 212 4.0 4.0 0.00 0.00 0.00 55 1013.9
20260506212635 59 275 4.0 5.0 0.00 0.00 0.00 54 1013.7
20260506212130 59 224 4.0 8.0 0.00 0.00 0.00 56 1013.7
20260506211626 60 36 0.0 5.0 0.00 0.00 0.00 56 1013.5
20260506211123 60 280 3.0 6.0 0.00 0.00 0.00 54 1013.5
20260506210620 61 214 2.0 4.0 0.00 0.00 0.00 58 1013.5
20260506210116 60 232 3.0 5.0 0.00 0.00 0.00 55 1013.6
20260506205613 60 259 4.0 5.0 0.00 0.00 0.00 55 1013.5
20260506205108 60 254 2.0 4.0 0.00 0.00 0.00 54 1013.5
20260506204606 60 221 5.0 5.0 0.00 0.00 0.00 56 1013.3
20260506204103 60 212 2.0 8.0 0.00 0.00 0.00 54 1013.3
20260506203601 60 118 2.0 6.0 0.00 0.00 0.00 53 1013.5
20260506203057 61 304 4.0 4.0 0.00 0.00 0.00 56 1013.6
20260506202555 62 327 0.0 2.0 0.00 0.00 0.00 50 1013.2
20260506202051 61 304 0.0 6.0 0.00 0.00 0.00 55 1013.5
20260506201549 61 267 2.0 4.0 0.00 0.00 0.00 51 1013.5
20260506201045 61 191 2.0 4.0 0.00 0.00 0.00 58 1013.4
20260506200541 61 331 0.0 3.0 0.00 0.00 0.00 49 1013.5
20260506200038 62 160 0.0 3.0 0.00 0.00 0.00 57 1013.5
20260506195535 61 269 2.0 4.0 0.00 0.00 0.00 53 1013.4
20260506195032 61 219 0.0 3.0 0.00 0.00 0.00 48 1013.3
20260506194530 61 329 1.0 5.0 0.00 0.00 0.00 46 1013.7
20260506194026 62 261 2.0 3.0 0.00 0.00 0.00 48 1013.5
20260506193523 61 140 4.0 6.0 0.00 0.00 0.00 48 1013.6
20260506193020 61 163 3.0 6.0 0.00 0.00 0.00 47 1013.6
20260506192517 62 187 0.0 3.0 0.00 0.00 0.00 45 1013.5
20260506192013 62 303 3.0 5.0 0.00 0.00 0.00 46 1013.3
20260506191510 62 209 5.0 6.0 0.00 0.00 0.00 48 1013.1
20260506191006 62 148 2.0 4.0 0.00 0.00 0.00 48 1013.4
20260506190503 61 169 4.0 9.0 0.00 0.00 0.00 47 1013.4
20260506185959 61 274 4.0 7.0 0.00 0.00 0.00 47 1013.1
20260506185457 60 216 3.0 7.0 0.00 0.00 0.00 50 1013.4
20260506184954 60 11 2.0 7.0 0.00 0.00 0.00 47 1013.3
20260506184451 60 249 4.0 12.0 0.00 0.00 0.00 49 1013.3
20260506183948 60 258 2.0 8.0 0.00 0.00 0.00 48 1013.3
20260506183443 61 243 6.0 7.0 0.00 0.00 0.00 48 1013.4
20260506182941 61 169 1.0 5.0 0.00 0.00 0.00 52 1013.2
20260506182438 60 158 4.0 8.0 0.00 0.00 0.00 54 1013.3
20260506181935 61 242 2.0 9.0 0.00 0.00 0.00 54 1013.0
20260506181433 60 243 0.0 6.0 0.00 0.00 0.00 51 1013.2
20260506180930 59 245 4.0 7.0 0.00 0.00 0.00 52 1012.9
20260506180426 60 131 3.0 4.0 0.00 0.00 0.00 52 1013.1
20260506175923 60 294 6.0 8.0 0.00 0.00 0.00 59 1013.6
20260506175420 60 185 0.0 5.0 0.00 0.00 0.00 56 1013.5
20260506174916 60 269 0.0 9.0 0.00 0.00 0.00 51 1013.5
20260506174414 59 217 1.0 11.0 0.00 0.00 0.00 54 1013.3
20260506173911 58 240 1.0 6.0 0.00 0.00 0.00 52 1013.6
20260506173408 59 140 4.0 5.0 0.00 0.00 0.00 52 1013.8
20260506172905 58 130 2.0 8.0 0.00 0.00 0.00 52 1013.9
20260506172401 58 259 3.0 9.0 0.00 0.00 0.00 53 1013.7
20260506171859 58 221 4.0 6.0 0.00 0.00 0.00 55 1013.8
20260506171356 58 145 6.0 6.0 0.00 0.00 0.00 57 1013.7
20260506170854 58 279 4.0 8.0 0.00 0.00 0.00 54 1013.9
20260506170349 58 193 1.0 4.0 0.00 0.00 0.00 57 1013.9
20260506165849 57 213 5.0 6.0 0.00 0.00 0.00 57 1014.0
20260506165346 57 273 6.0 6.0 0.00 0.00 0.00 59 1014.0
20260506164842 57 134 0.0 7.0 0.00 0.00 0.00 62 1014.1
20260506164339 56 253 4.0 6.0 0.00 0.00 0.00 59 1013.9
20260506163837 56 202 5.0 7.0 0.00 0.00 0.00 57 1014.1
20260506163331 56 210 6.0 6.0 0.00 0.00 0.00 64 1014.1
20260506162827 56 188 4.0 6.0 0.00 0.00 0.00 60 1014.0
20260506162325 56 140 1.0 8.0 0.00 0.00 0.00 64 1014.1
20260506161823 56 273 10.0 10.0 0.00 0.00 0.00 60 1013.9
20260506161320 57 236 2.0 5.0 0.00 0.00 0.00 61 1013.8
20260506160817 56 206 5.0 6.0 0.00 0.00 0.00 60 1013.7
20260506160313 56 211 7.0 9.0 0.00 0.00 0.00 60 1013.6
20260506155813 56 233 4.0 5.0 0.00 0.00 0.00 66 1014.0
20260506155309 56 116 2.0 11.0 0.00 0.00 0.00 65 1013.7
20260506153421 55 210 5.0 9.0 0.00 0.00 0.00 65 1013.4
20260506152919 54 215 5.0 10.0 0.00 0.00 0.00 66 1013.6
20260506152415 55 236 5.0 9.0 0.00 0.00 0.00 64 1013.8
20260506151914 55 138 6.0 8.0 0.00 0.00 0.00 63 1013.6
20260506151410 53 205 1.0 9.0 0.00 0.00 0.00 67 1013.4
20260506150908 55 245 5.0 9.0 0.00 0.00 0.00 67 1013.3
20260506150404 54 210 2.0 7.0 0.00 0.00 0.00 66 1013.4
20260506145901 54 268 4.0 11.0 0.00 0.00 0.00 71 1013.2
20260506145357 53 266 4.0 10.0 0.00 0.00 0.00 73 1013.0
20260506144855 53 215 7.0 9.0 0.00 0.00 0.00 73 1013.1
20260506144351 52 250 4.0 4.0 0.00 0.00 0.00 79 1013.2
20260506143850 53 186 5.0 5.0 0.00 0.00 0.00 74 1013.0
20260506143346 53 273 2.0 3.0 0.00 0.00 0.00 78 1012.9
20260506142845 52 299 3.0 5.0 0.00 0.00 0.00 77 1012.8
20260506142342 52 204 2.0 5.0 0.00 0.00 0.00 77 1012.8
20260506141840 52 198 6.0 6.0 0.00 0.00 0.00 75 1012.7
20260506141338 52 251 5.0 7.0 0.00 0.00 0.00 78 1012.8
20260506140836 51 239 3.0 6.0 0.00 0.00 0.00 79 1012.6
20260506140332 51 240 5.0 8.0 0.00 0.00 0.00 80 1012.6
20260506135829 52 304 6.0 6.0 0.00 0.00 0.00 78 1012.6
20260506135326 51 116 1.0 5.0 0.00 0.00 0.00 82 1012.0
20260506134822 50 168 2.0 5.0 0.00 0.00 0.00 82 1012.3
20260506134319 50 227 2.0 4.0 0.00 0.00 0.00 84 1012.3
20260506133816 49 131 7.0 8.0 0.00 0.00 0.00 84 1012.6
20260506133313 49 284 3.0 5.0 0.00 0.00 0.00 83 1012.4
20260506132809 50 314 2.0 6.0 0.00 0.00 0.00 84 1012.6
20260506132307 49 145 3.0 4.0 0.00 0.00 0.00 84 1012.5
20260506131805 49 243 4.0 9.0 0.00 0.00 0.00 83 1012.3
20260506131300 49 278 2.0 8.0 0.00 0.00 0.00 87 1012.1
20260506130757 48 287 2.0 4.0 0.00 0.00 0.00 89 1012.2
20260506130254 48 129 5.0 5.0 0.00 0.00 0.00 89 1011.9
20260506125752 48 248 5.0 8.0 0.00 0.00 0.00 89 1011.8
20260506125250 48 243 4.0 6.0 0.00 0.00 0.00 90 1012.1
20260506124748 48 221 1.0 4.0 0.00 0.00 0.00 91 1012.2
20260506124245 47 244 2.0 4.0 0.00 0.00 0.00 92 1012.0
20260506123743 47 180 4.0 5.0 0.00 0.00 0.00 92 1012.0
20260506123242 47 215 3.0 4.0 0.00 0.00 0.00 92 1012.0
20260506122738 47 266 4.0 4.0 0.00 0.00 0.00 92 1011.9
20260506122235 46 216 1.0 5.0 0.00 0.00 0.00 92 1011.7
20260506121733 46 278 1.0 4.0 0.00 0.00 0.00 93 1011.7
20260506121230 46 239 3.0 4.0 0.00 0.00 0.00 95 1011.8
20260506120727 46 289 0.0 3.0 0.00 0.00 0.00 95 1011.8
20260506120225 46 228 2.0 5.0 0.00 0.00 0.00 95 1011.4
20260506115722 45 173 2.0 6.0 0.00 0.00 0.00 95 1011.2
20260506115220 45 248 1.0 4.0 0.00 0.00 0.00 96 1011.3